Trophy Lakes Weather Center

Moon Phase Calendar



Trophy Lakes Water Level
Online Cameras

 


      

Current Conditions in Shell Point
5/18/2021 7:51:20 PM

72°F
Feels Like 72
Clear
Humidity
69%
Pressure
30.24"
Wind
5 mph (ESE)
Dew Point
62°F
UV Index
0/10 (Low)
Visibility
6 mi

Hourly Forecast

Date & Time Tue, May 18
7:00 PM
Tue, May 18
8:00 PM
Tue, May 18
9:00 PM
Tue, May 18
10:00 PM
Tue, May 18
11:00 PM
Wed, May 19
12:00 AM
Wed, May 19
1:00 AM
Wed, May 19
2:00 AM
Wed, May 19
3:00 AM
Wed, May 19
4:00 AM
Wed, May 19
5:00 AM
Wed, May 19
6:00 AM
Wed, May 19
7:00 AM
Wed, May 19
8:00 AM
Wed, May 19
9:00 AM
Wed, May 19
10:00 AM
Wed, May 19
11:00 AM
Wed, May 19
12:00 PM
Wed, May 19
1:00 PM
Wed, May 19
2:00 PM
Wed, May 19
3:00 PM
Wed, May 19
4:00 PM
Wed, May 19
5:00 PM
Wed, May 19
6:00 PM
Wed, May 19
7:00 PM
Wed, May 19
8:00 PM
Wed, May 19
9:00 PM
Wed, May 19
10:00 PM
Wed, May 19
11:00 PM
Thu, May 20
12:00 AM
Thu, May 20
1:00 AM
Thu, May 20
2:00 AM
Thu, May 20
3:00 AM
Thu, May 20
4:00 AM
Thu, May 20
5:00 AM
Thu, May 20
6:00 AM
Thu, May 20
7:00 AM
Thu, May 20
8:00 AM
Thu, May 20
9:00 AM
Thu, May 20
10:00 AM
Thu, May 20
11:00 AM
Thu, May 20
12:00 PM
Thu, May 20
1:00 PM
Thu, May 20
2:00 PM
Thu, May 20
3:00 PM
Thu, May 20
4:00 PM
Thu, May 20
5:00 PM
Thu, May 20
6:00 PM
Condition
Clouds

Clear

Clouds

Clouds

Clouds

Clouds

Clouds

Clouds

Clouds

Clouds

Clouds

Clouds

Clouds

Rain

Rain

Rain

Rain

Clouds

Clouds

Clouds

Clouds

Clouds

Clouds

Clouds

Clouds

Clouds

Clouds

Clouds

Clouds

Clouds

Clouds

Clouds

Clouds

Clouds

Clouds

Clouds

Clouds

Clouds

Clear

Clear

Clear

Clear

Clear

Clear

Clear

Clear

Clear

Clear
Temperature 72°F72°F71°F70°F69°F68°F66°F65°F65°F65°F65°F65°F66°F70°F73°F74°F76°F77°F77°F77°F77°F77°F76°F75°F73°F69°F66°F65°F65°F65°F64°F64°F64°F64°F63°F63°F64°F69°F72°F75°F76°F78°F78°F79°F78°F78°F77°F75°F
Feels Like 72°F72°F72°F71°F70°F68°F66°F66°F65°F65°F65°F65°F66°F70°F73°F74°F76°F77°F77°F77°F77°F77°F76°F74°F72°F69°F66°F65°F65°F65°F64°F64°F64°F64°F63°F63°F64°F68°F72°F74°F76°F77°F78°F78°F78°F77°F76°F74°F
Cloudiness 19%1%19%36%54%71%90%92%100%100%100%100%100%100%100%100%100%99%99%99%90%77%64%62%56%51%34%27%24%26%23%20%17%27%21%19%27%25%1%1%1%0%0%0%0%2%3%3%
Visibility 6 mi6 mi6 mi6 mi6 mi6 mi6 mi6 mi6 mi6 mi6 mi6 mi6 mi6 mi6 mi6 mi6 mi6 mi6 mi6 mi6 mi6 mi6 mi6 mi6 mi6 mi6 mi6 mi6 mi6 mi6 mi6 mi6 mi6 mi6 mi6 mi6 mi6 mi6 mi6 mi6 mi6 mi6 mi6 mi6 mi6 mi6 mi6 mi
Precipitation 0%0%0%0%0%0%0%0%11%19%23%30%38%43%46%53%72%82%72%56%0%0%0%0%0%0%0%0%0%0%0%0%0%0%0%0%0%0%0%0%0%0%0%0%0%0%0%0%
Humidity 67%69%71%74%76%81%88%89%90%90%89%89%86%77%66%63%59%55%54%53%52%51%52%55%59%70%78%80%80%80%80%81%81%81%82%83%81%69%58%51%47%43%41%41%42%44%46%51%
Dew Point 61°F62°F62°F62°F62°F62°F62°F62°F62°F62°F62°F61°F62°F62°F61°F61°F60°F60°F59°F59°F58°F57°F57°F57°F58°F59°F59°F59°F59°F58°F58°F58°F58°F58°F58°F58°F58°F58°F57°F55°F54°F53°F52°F53°F53°F53°F54°F55°F
Pressure 30.24"30.24"30.24"30.27"30.27"30.3"30.3"30.27"30.27"30.24"30.27"30.27"30.3"30.33"30.33"30.36"30.33"30.33"30.33"30.33"30.33"30.3"30.3"30.3"30.3"30.33"30.33"30.33"30.33"30.33"30.33"30.33"30.3"30.3"30.33"30.33"30.36"30.36"30.39"30.39"30.39"30.39"30.36"30.36"30.36"30.33"30.33"30.33"
Wind Speed 10.3 mph9 mph7.8 mph7.3 mph7.2 mph6.5 mph5.8 mph5.5 mph5.8 mph5.7 mph5.7 mph5.9 mph5.5 mph6.3 mph8.9 mph9.7 mph10.3 mph11.5 mph12.8 mph12.8 mph11.9 mph11.8 mph12.2 mph11.8 mph9 mph6.9 mph6 mph6.1 mph6 mph5.7 mph5.4 mph5.1 mph5 mph4.7 mph4.1 mph4.3 mph5.1 mph5.8 mph7.5 mph8.3 mph9.5 mph9.7 mph10.5 mph11.1 mph10.6 mph10.6 mph9.9 mph8.5 mph
Wind
Direction
87°
E
85°
E
80°
E
77°
ENE
78°
ENE
74°
ENE
70°
ENE
66°
ENE
65°
ENE
64°
ENE
68°
ENE
64°
ENE
67°
ENE
76°
ENE
92°
E
97°
E
103°
ESE
105°
ESE
103°
ESE
103°
ESE
101°
E
99°
E
97°
E
100°
E
103°
ESE
104°
ESE
103°
ESE
107°
ESE
111°
ESE
106°
ESE
106°
ESE
106°
ESE
98°
E
94°
E
77°
ENE
56°
NE
48°
NE
54°
NE
70°
ENE
83°
E
91°
E
99°
E
102°
ESE
107°
ESE
107°
ESE
109°
ESE
110°
ESE
112°
ESE

Daily Forecast

Date High Low Precip. Humidity
Today
May 18

Clouds
78 °F
65 °F
26%
47%
Wednesday
May 19

Rain
77 °F
65 °F
82%
54%
Thursday
May 20

Clear
79 °F
63 °F
0%
41%
Friday
May 21

Clouds
80 °F
62 °F
0%
53%
Saturday
May 22

Clouds
83 °F
62 °F
0%
36%
Sunday
May 23

Rain
90 °F
66 °F
40%
33%
Monday
May 24

Clouds
94 °F
69 °F
0%
33%
Tuesday
May 25

Clouds
92 °F
72 °F
19%
43%
Wednesday
May 26

Clouds
90 °F
72 °F
0%
42%
Thursday
May 27

Rain
93 °F
70 °F
77%
38%
Friday
May 28

Rain
81 °F
71 °F
94%
82%
Saturday
May 29

Rain
87 °F
69 °F
100%
48%
Sunday
May 30

Clouds
84 °F
69 °F
0%
46%
Monday
May 31

Clouds
87 °F
70 °F
0%
45%
Tuesday
Jun 1

Rain
92 °F
75 °F
23%
41%
Wednesday
Jun 2

Rain
90 °F
73 °F
32%
64%

Temperature 8-14 Day Outlook



Precipitation 8-14 Day Outlook




Quick Links
Trophy Lakes News
Trophy Lakes Photos
Trophy Lakes Videos




About Us
Contact Us
Site Map
Search Site
Advertise With Us
   
Trophy.LakesOnline.com
THE TROPHY LAKES WEBSITE

Copyright 2021, Lakes Online
Privacy    |    Legal